TimeEDT,TemperatureF,Dew PointF,Humidity,Sea Level PressureIn,VisibilityMPH,Wind Direction,Wind SpeedMPH,Gust SpeedMPH,PrecipitationIn,Events,Conditions,WindDirDegrees,DateUTC
12:14 AM,41.4,41.0,99,29.87,1.2,East,17.3,-,N/A,,Overcast,80,2013-04-11 04:14:00
12:35 AM,41.4,40.8,98,29.86,1.5,East,17.3,-,N/A,,Overcast,90,2013-04-11 04:35:00
12:55 AM,41.5,41.0,98,29.90,1.8,East,12.7,20.7,N/A,,Overcast,80,2013-04-11 04:55:00
1:14 AM,41.2,40.6,98,29.89,2.0,East,15.0,-,N/A,,Overcast,80,2013-04-11 05:14:00
1:35 AM,41.2,40.6,98,29.91,2.5,East,15.0,-,N/A,Rain,Light Rain,80,2013-04-11 05:35:00
1:55 AM,40.8,40.5,99,29.86,2.5,ENE,15.0,18.4,N/A,,Overcast,70,2013-04-11 05:55:00
2:14 AM,40.6,40.3,99,29.87,5.0,East,16.1,-,N/A,Rain,Light Rain,80,2013-04-11 06:14:00
2:35 AM,40.5,39.9,98,29.85,5.0,East,18.4,-,N/A,Rain,Light Rain,80,2013-04-11 06:35:00
2:54 AM,40.3,39.6,97,29.83,5.0,ENE,12.7,-,N/A,Rain,Light Rain,60,2013-04-11 06:54:00
3:14 AM,40.3,39.4,97,29.86,1.2,ENE,11.5,17.3,N/A,,Overcast,70,2013-04-11 07:14:00
3:35 AM,40.3,39.4,97,29.84,3.0,NE,13.8,18.4,N/A,,Overcast,40,2013-04-11 07:35:00
3:54 AM,40.3,39.4,97,29.82,1.2,ENE,12.7,19.6,N/A,,Overcast,60,2013-04-11 07:54:00
4:14 AM,41.0,39.6,95,29.86,1.8,ENE,13.8,27.6,N/A,,Overcast,60,2013-04-11 08:14:00
4:35 AM,40.6,38.8,93,29.86,5.0,East,12.7,19.6,N/A,Rain,Light Rain,80,2013-04-11 08:35:00
4:54 AM,40.6,39.2,95,29.84,5.0,East,17.3,-,N/A,Rain,Light Rain,100,2013-04-11 08:54:00
5:14 AM,40.6,39.2,95,29.82,3.0,East,17.3,21.9,N/A,,Overcast,100,2013-04-11 09:14:00
5:35 AM,40.6,39.4,95,29.82,5.0,East,12.7,21.9,N/A,,Overcast,100,2013-04-11 09:35:00
5:54 AM,40.6,39.4,95,29.83,10.0,East,10.4,-,N/A,Rain,Light Rain,100,2013-04-11 09:54:00
6:15 AM,40.6,39.6,96,29.82,10.0,East,13.8,-,N/A,,Overcast,80,2013-04-11 10:15:00
6:35 AM,40.6,39.6,96,29.84,10.0,East,15.0,-,N/A,,Overcast,80,2013-04-11 10:35:00
6:54 AM,40.5,39.4,96,29.83,10.0,East,16.1,-,N/A,,Overcast,90,2013-04-11 10:54:00
7:15 AM,40.5,39.4,96,29.83,10.0,East,15.0,25.3,N/A,,Overcast,90,2013-04-11 11:15:00
7:34 AM,40.5,39.4,96,29.85,10.0,East,16.1,23.0,N/A,,Overcast,90,2013-04-11 11:34:00
7:54 AM,40.6,39.4,95,29.83,10.0,East,19.6,25.3,N/A,Rain,Light Rain,90,2013-04-11 11:54:00
8:15 AM,40.5,39.4,96,29.83,10.0,East,16.1,26.5,N/A,,Overcast,100,2013-04-11 12:15:00
8:34 AM,40.5,39.6,97,29.82,5.0,East,17.3,26.5,N/A,,Overcast,90,2013-04-11 12:34:00
8:54 AM,40.5,39.6,97,29.84,5.0,East,16.1,21.9,N/A,,Overcast,90,2013-04-11 12:54:00
9:15 AM,40.5,39.6,97,29.83,7.0,East,18.4,24.2,N/A,,Overcast,90,2013-04-11 13:15:00
9:34 AM,40.5,39.4,96,29.80,7.0,East,23.0,29.9,N/A,,Overcast,90,2013-04-11 13:34:00
9:54 AM,40.3,39.2,96,29.81,3.0,East,17.3,21.9,N/A,,Overcast,90,2013-04-11 13:54:00
10:15 AM,39.9,39.0,97,29.81,4.0,East,17.3,28.8,N/A,,Overcast,100,2013-04-11 14:15:00
10:34 AM,40.3,39.4,97,29.82,2.5,East,15.0,24.2,N/A,,Overcast,90,2013-04-11 14:34:00
10:54 AM,39.7,38.8,97,29.81,1.8,East,20.7,31.1,N/A,,Overcast,100,2013-04-11 14:54:00
11:15 AM,39.7,38.8,97,29.81,1.8,East,19.6,28.8,N/A,,Overcast,100,2013-04-11 15:15:00
11:34 AM,39.7,39.0,97,29.80,2.0,East,19.6,26.5,N/A,,Overcast,90,2013-04-11 15:34:00
11:55 AM,39.7,39.0,97,29.81,1.8,East,19.6,27.6,N/A,,Overcast,100,2013-04-11 15:55:00
12:15 PM,39.7,39.0,97,29.80,1.8,East,23.0,31.1,N/A,,Overcast,90,2013-04-11 16:15:00
12:34 PM,39.7,39.0,97,29.79,1.5,East,24.2,28.8,N/A,,Overcast,90,2013-04-11 16:34:00
1:14 PM,39.4,38.5,97,29.81,10.0,East,20.7,33.4,N/A,,Overcast,100,2013-04-11 17:14:00
1:34 PM,39.2,38.5,97,29.81,2.5,East,20.7,27.6,N/A,,Overcast,100,2013-04-11 17:34:00
1:55 PM,38.7,37.9,97,29.78,0.8,East,19.6,28.8,N/A,,Overcast,100,2013-04-11 17:55:00
2:14 PM,38.7,37.9,97,29.77,0.8,ESE,17.3,29.9,N/A,,Overcast,110,2013-04-11 18:14:00
2:35 PM,38.1,37.6,98,29.76,0.5,East,21.9,31.1,N/A,Fog,Fog,100,2013-04-11 18:35:00
2:54 PM,38.7,37.9,97,29.76,0.2,East,18.4,24.2,N/A,Fog,Fog,100,2013-04-11 18:54:00
3:14 PM,37.9,37.6,99,29.75,0.5,East,21.9,28.8,N/A,Fog,Fog,100,2013-04-11 19:14:00
3:35 PM,37.8,37.2,98,29.73,0.2,East,24.2,27.6,N/A,Fog,Fog,100,2013-04-11 19:35:00
3:54 PM,37.8,37.2,98,29.74,0.2,East,20.7,24.2,N/A,Fog,Fog,90,2013-04-11 19:54:00
4:14 PM,37.4,37.0,99,29.74,0.2,SE,15.0,31.1,N/A,Fog,Fog,130,2013-04-11 20:14:00
4:35 PM,37.2,36.9,99,29.73,0.2,ESE,21.9,26.5,N/A,Fog,Fog,110,2013-04-11 20:35:00
4:54 PM,37.2,36.9,99,29.72,0.2,East,19.6,27.6,N/A,Fog,Fog,100,2013-04-11 20:54:00
5:14 PM,37.2,36.9,99,29.71,0.2,ESE,19.6,27.6,N/A,Fog,Fog,110,2013-04-11 21:14:00
5:35 PM,37.2,36.9,99,29.71,0.5,East,17.3,24.2,N/A,Fog,Fog,100,2013-04-11 21:35:00
5:54 PM,37.6,37.0,98,29.71,0.5,East,19.6,25.3,N/A,Fog,Fog,100,2013-04-11 21:54:00
6:15 PM,37.8,37.2,98,29.71,0.2,ESE,15.0,25.3,N/A,Fog,Fog,110,2013-04-11 22:15:00
6:34 PM,37.8,37.2,98,29.70,0.2,East,18.4,25.3,N/A,Fog,Fog,100,2013-04-11 22:34:00
6:54 PM,37.8,37.4,99,29.69,0.2,East,15.0,-,N/A,,Overcast,100,2013-04-11 22:54:00
7:15 PM,37.2,37.0,99,29.68,0.5,East,15.0,-,N/A,Rain,Light Rain,100,2013-04-11 23:15:00
7:34 PM,37.2,37.0,99,29.68,0.8,East,15.0,25.3,N/A,Snow,Light Snow,100,2013-04-11 23:34:00
7:55 PM,37.2,37.0,99,29.66,1.8,East,18.4,25.3,N/A,Snow,Light Snow,90,2013-04-11 23:55:00
8:15 PM,37.2,37.0,99,29.66,4.0,East,17.3,23.0,N/A,Snow,Light Snow,100,2013-04-12 00:15:00
8:34 PM,37.2,37.0,99,29.66,2.5,East,19.6,-,N/A,Rain,Light Rain,100,2013-04-12 00:34:00
8:55 PM,37.2,37.0,99,29.66,4.0,East,17.3,21.9,N/A,Snow,Light Snow,100,2013-04-12 00:55:00
9:14 PM,37.2,37.0,99,29.62,4.0,East,21.9,28.8,N/A,Snow,Light Snow,90,2013-04-12 01:14:00
9:34 PM,37.2,36.9,99,29.61,4.0,East,23.0,26.5,N/A,Snow,Light Snow,90,2013-04-12 01:34:00
9:55 PM,37.2,36.9,99,29.61,10.0,East,18.4,25.3,N/A,Snow,Light Snow,100,2013-04-12 01:55:00
10:14 PM,37.2,36.9,99,29.61,7.0,East,15.0,26.5,N/A,,Overcast,90,2013-04-12 02:14:00
10:35 PM,37.2,36.7,98,29.60,2.0,East,15.0,23.0,N/A,Snow,Light Snow,100,2013-04-12 02:35:00
10:54 PM,37.2,36.7,98,29.62,2.0,East,11.5,-,N/A,Snow,Light Snow,100,2013-04-12 02:54:00
11:14 PM,37.2,36.7,98,29.60,2.0,East,11.5,19.6,N/A,Rain,Light Rain,100,2013-04-12 03:14:00
11:35 PM,37.2,36.7,98,29.61,3.0,East,9.2,18.4,N/A,Rain,Light Rain,100,2013-04-12 03:35:00
11:54 PM,37.2,36.7,98,29.58,2.5,East,12.7,17.3,N/A,Rain,Light Rain,90,2013-04-12 03:54:00